This is the latest recevied weather packets stored in our database for station/object K8JCL-13. If no packets are shown the sender has not sent any weather packets the latest 1 day(s).
| Time | Temp. | Humidity | Pressure | Rain* | Wind** | Luminosity | Snow |
|---|---|---|---|---|---|---|---|
| 1778029814 | 15° C | 99% | 1007.4 hPa | 4.83 mm | 0 m/s | 0 W/m² | - |
| 1778029508 | 15° C | 99% | 1007.8 hPa | 6.1 mm | 0 m/s | 0 W/m² | - |
| 1778029203 | 15° C | 99% | 1007.8 hPa | 8.89 mm | 0 m/s | 0 W/m² | - |
| 1778028901 | 15° C | 99% | 1007.7 hPa | 4.83 mm | 0.45 m/s, 337° | 0 W/m² | - |
| 1778028596 | 15° C | 99% | 1007.6 hPa | 0 mm | 0 m/s | 0 W/m² | - |
| 1778028294 | 15° C | 99% | 1007.5 hPa | 0 mm | 0.45 m/s, 302° | 0 W/m² | - |
| 1778027990 | 15° C | 99% | 1007.3 hPa | 1.27 mm | 0 m/s | 0 W/m² | - |
| 1778027687 | 15° C | 99% | 1007.3 hPa | 1.27 mm | 0 m/s | 0 W/m² | - |
| 1778027383 | 15° C | 99% | 1007.1 hPa | 1.78 mm | 0 m/s | 0 W/m² | - |
| 1778027079 | 15° C | 99% | 1007.2 hPa | 3.05 mm | 0 m/s | 1 W/m² | - |
| 1778026775 | 15° C | 99% | 1007 hPa | 3.05 mm | 0 m/s | 1 W/m² | - |
| 1778026472 | 15.56° C | 99% | 1007.1 hPa | 3.05 mm | 0 m/s | 1 W/m² | - |
| 1778026169 | 15° C | 99% | 1007.1 hPa | 3.05 mm | 0 m/s | 1 W/m² | - |
| 1778025867 | 15° C | 99% | 1007.2 hPa | 3.56 mm | 0 m/s | 1 W/m² | - |
| 1778025563 | 15° C | 99% | 1007.2 hPa | 1.78 mm | 0 m/s | 1 W/m² | - |
| 1778025262 | 15° C | 99% | 1007.2 hPa | 1.78 mm | 0 m/s | 3 W/m² | - |
| 1778024958 | 15.56° C | 99% | 1007.1 hPa | 1.27 mm | 0.45 m/s, 86° | 4 W/m² | - |
| 1778024656 | 15.56° C | 99% | 1007.1 hPa | 1.27 mm | 0 m/s | 4 W/m² | - |
| 1778024352 | 15.56° C | 99% | 1007.1 hPa | 1.78 mm | 0.45 m/s, 0° | 6 W/m² | - |
| 1778024050 | 15.56° C | 99% | 1007.3 hPa | 1.78 mm | 0 m/s | 9 W/m² | - |
| 1778023747 | 15.56° C | 99% | 1007.2 hPa | 0 mm | 0 m/s | 16 W/m² | - |
| 1778023445 | 15.56° C | 99% | 1007.2 hPa | 1.27 mm | 0 m/s | 14 W/m² | - |
| 1778023141 | 15.56° C | 99% | 1007.2 hPa | 3.05 mm | 0 m/s | 11 W/m² | - |
| 1778022839 | 15.56° C | 99% | 1007.2 hPa | 1.78 mm | 0 m/s | 11 W/m² | - |
| 1778022537 | 15.56° C | 99% | 1007.3 hPa | 0 mm | 0 m/s | 14 W/m² | - |
* Rain latest hour (hover to see other rain measurements)
** Current wind speed in m/s (hover to see current wind gust speed)